Regional Weather Roundup
Issued by NWS

Home | Current Version | Previous Version | Graphics & Text | Print | Product List | Glossary On
Versions: 1 2 3 4 5 6 7 8 9 10 11 12 13 14 15 16 17 18 19 20 21 22 23 24 25 26 27 28 29 30 31 32 33 34 35 36 37 38 39 40 41 42 43 44 45 46 47 48 49 50
000
ASUS43 KLMK 241710
RWRKY
KENTUCKY REGIONAL WEATHER ROUNDUP
NATIONAL WEATHER SERVICE LOUISVILLE KY
100 PM EDT SUN JUL 24 2016

NOTE "FAIR" INDICATES FEW OR NO CLOUDS BELOW 12,000 FEET
WITH NO SIGNIFICANT WEATHER AND/OR OBSTRUCTIONS TO VISIBILITY.

KYZ001>023-026-027-061>063-070>075-241800-
WESTERN AND SOUTH CENTRAL KENTUCKY

CITY           SKY/WX    TMP DP  RH WIND       PRES   REMARKS
PADUCAH        MOSUNNY   89  75  63 S6        30.00S HX  99
HENDERSON      PTSUNNY   90  77  66 SW7       29.99S HX 102
OWENSBORO      PTSUNNY   90  80  72 S9        30.02S HX 107
HOPKINSVILLE   MOSUNNY   87  76  68 W8        30.03S HX  98
BOWLING GREEN  MOSUNNY   90  76  63 W8        30.04S HX 101
GLASGOW        SUNNY     88  74  63 W6        30.05S HX  97
$$

KYZ024-025-028>034-038-045-046-053-241800-
NORTH CENTRAL KENTUCKY

CITY           SKY/WX    TMP DP  RH WIND       PRES   REMARKS
LOUISVILLE/SDF PTSUNNY   92  74  55 S10       30.01F HX 101
LOUISVILLE/LOU PTSUNNY   92  73  53 S7        30.01F HX 100
FORT KNOX      SUNNY     89  76  63 S8        30.02F HX 100
$$

KYZ035>037-039>044-047>052-055>060-089>105-241800-
NORTHEAST KENTUCKY

CITY           SKY/WX    TMP DP  RH WIND       PRES   REMARKS
LEXINGTON      MOSUNNY   90  73  57 W8        30.05F HX  98
COVINGTON      MOSUNNY   91  74  57 S10       30.03F HX 100
FRANKFORT      PTSUNNY   91  75  59 MISG      30.03F HX 101
$$

KYZ054-064>069-076>088-106>120-241800-
SOUTHEAST KENTUCKY

CITY           SKY/WX    TMP DP  RH WIND       PRES   REMARKS
JACKSON        SUNNY     88  74  63 VRB3      30.09S HX  96
LONDON         SUNNY     88  71  57 SW8       30.08S HX  94
SOMERSET       MOSUNNY   86  70  58 S7        30.08S HX  90
MIDDLESBORO    SUNNY     87  73  64 SE5       30.09F HX  94
MONTICELLO     MOSUNNY  N/A N/A N/A N8        30.08F
$$





USA.gov is the U.S. government's official web portal to all federal, state and local government web resources and services.